Location: Home
(42.5358°N, 72.7383°W)
Time: 19:11:43
(UTC-05:00)

A-11 Canister half - Pass Details

Date: 01 December 2021
Orbit: 1524 x 1684 km, 47.3° (Epoch: 23 January)

Event Time Altitude Azimuth Distance (km) Brightness Sun altitude
Rises 22:39:32 0° 167° (SSE) 4,907 - -65.8°
Reaches altitude 10° 22:45:51 10° 138° (SE) 3,938 - -66.5°
Maximum altitude 22:48:50 12° 120° (ESE) 3,811 - -66.8°
Drops below altitude 10° 22:51:49 10° 103° (ESE) 3,945 - -67.1°
Sets 22:58:05 0° 74° (ENE) 4,926 - -67.6°
